PTR2130 KEWR-CYTZ

Flight info

Callsign PTR2130
Flight time 1h 26m
Altitude 24000
Route COATE DCT LAAYK Q436 MTCAF DCT STUBN DCT WOZEE DCT KAXOL KAXOL2
Aircraft DH8D/M-SDE2E3FGRY/H

Departure

Time 2026-05-06 18:06
Airport Newark Liberty International Airport (KEWR)

Arrival

Time 2026-05-06 19:32
Airport Billy Bishop Toronto City Airport (CYTZ)
Time Latitude Longitude Altitude Speed Heading
2026-05-06 17:32 40.68955 -74.17485 19 ft 0 kts 332°
2026-05-06 17:54 40.68955 -74.17486 18 ft 0 kts 332°
2026-05-06 17:55 40.68953 -74.17484 18 ft 2 kts 332°
2026-05-06 17:55 40.68940 -74.17475 18 ft 2 kts 332°
2026-05-06 17:55 40.68926 -74.17468 18 ft 2 kts 352°
2026-05-06 17:55 40.68912 -74.17468 18 ft 2 kts 12°
2026-05-06 17:56 40.68898 -74.17476 18 ft 2 kts 33°
2026-05-06 17:56 40.68886 -74.17488 18 ft 2 kts 40°
2026-05-06 17:56 40.68875 -74.17500 18 ft 2 kts 39°
2026-05-06 17:56 40.68863 -74.17512 18 ft 1 kts 39°
2026-05-06 17:57 40.68857 -74.17527 18 ft 1 kts 95°
2026-05-06 17:57 40.68858 -74.17532 18 ft 1 kts 113°
2026-05-06 17:57 40.68846 -74.17499 18 ft 3 kts 117°
2026-05-06 17:57 40.68842 -74.17489 18 ft 0 kts 116°
2026-05-06 17:58 40.68842 -74.17490 18 ft 0 kts 116°
2026-05-06 18:00 40.68837 -74.17474 18 ft 6 kts 117°
2026-05-06 18:00 40.68814 -74.17406 18 ft 7 kts 114°
2026-05-06 18:00 40.68790 -74.17345 18 ft 6 kts 101°
2026-05-06 18:01 40.68814 -74.17299 18 ft 6 kts 27°
2026-05-06 18:01 40.68868 -74.17265 18 ft 10 kts 27°
2026-05-06 18:01 40.68937 -74.17221 18 ft 11 kts 26°
2026-05-06 18:01 40.69012 -74.17172 18 ft 12 kts 26°
2026-05-06 18:02 40.69094 -74.17119 18 ft 13 kts 26°
2026-05-06 18:02 40.69181 -74.17065 18 ft 14 kts 25°
2026-05-06 18:02 40.69272 -74.17008 18 ft 14 kts 26°
2026-05-06 18:02 40.69365 -74.16949 18 ft 14 kts 24°
2026-05-06 18:03 40.69459 -74.16890 18 ft 15 kts 26°
2026-05-06 18:03 40.69555 -74.16828 18 ft 15 kts 26°
2026-05-06 18:03 40.69654 -74.16766 18 ft 15 kts 26°
2026-05-06 18:03 40.69753 -74.16702 18 ft 15 kts 26°
2026-05-06 18:04 40.69848 -74.16644 18 ft 14 kts 23°
2026-05-06 18:04 40.69935 -74.16588 18 ft 13 kts 27°
2026-05-06 18:04 40.70013 -74.16534 18 ft 12 kts 27°
2026-05-06 18:04 40.70064 -74.16464 18 ft 10 kts 91°
2026-05-06 18:05 40.70031 -74.16391 18 ft 9 kts 159°
2026-05-06 18:05 40.69979 -74.16399 18 ft 9 kts 204°
2026-05-06 18:05 40.69714 -74.16570 18 ft 85 kts 206°
2026-05-06 18:05 40.68965 -74.17043 32 ft 144 kts 208°
2026-05-06 18:06 40.68068 -74.17705 483 ft 152 kts 211°
2026-05-06 18:06 40.67130 -74.18262 1147 ft 154 kts 192°
2026-05-06 18:06 40.66017 -74.18237 1732 ft 163 kts 179°
2026-05-06 18:06 40.64938 -74.18070 2467 ft 159 kts 180°
2026-05-06 18:07 40.63795 -74.17845 2798 ft 181 kts 176°
2026-05-06 18:07 40.62523 -74.17499 2893 ft 192 kts 174°
2026-05-06 18:07 40.61169 -74.17021 2857 ft 207 kts 172°
2026-05-06 18:07 40.59742 -74.16650 3017 ft 209 kts 176°
2026-05-06 18:08 40.58273 -74.16692 2945 ft 213 kts 200°
2026-05-06 18:08 40.57245 -74.17787 3736 ft 182 kts 236°
2026-05-06 18:08 40.56949 -74.19375 4141 ft 183 kts 258°
2026-05-06 18:08 40.56850 -74.21035 4386 ft 185 kts 258°
2026-05-06 18:09 40.56739 -74.22747 4516 ft 191 kts 258°
2026-05-06 18:09 40.56628 -74.24481 4837 ft 185 kts 258°
2026-05-06 18:09 40.56531 -74.26141 5056 ft 185 kts 259°
2026-05-06 18:09 40.56430 -74.27812 5273 ft 185 kts 257°
2026-05-06 18:10 40.56309 -74.29521 5453 ft 185 kts 255°
2026-05-06 18:10 40.56265 -74.31216 5514 ft 200 kts 276°
2026-05-06 18:10 40.57144 -74.32764 5570 ft 231 kts 319°
2026-05-06 18:10 40.58711 -74.33637 5796 ft 256 kts 331°
2026-05-06 18:11 40.60394 -74.34476 6306 ft 258 kts 329°
2026-05-06 18:11 40.62024 -74.35397 6817 ft 258 kts 325°
2026-05-06 18:11 40.63635 -74.36433 7368 ft 258 kts 324°
2026-05-06 18:11 40.65245 -74.37479 7986 ft 257 kts 324°
2026-05-06 18:12 40.66861 -74.38540 8424 ft 263 kts 323°
2026-05-06 18:12 40.68473 -74.39593 9064 ft 260 kts 323°
2026-05-06 18:12 40.70083 -74.40649 9563 ft 262 kts 323°
2026-05-06 18:12 40.71717 -74.41721 10106 ft 263 kts 324°
2026-05-06 18:13 40.73341 -74.42786 10678 ft 262 kts 324°
2026-05-06 18:13 40.74975 -74.43862 11171 ft 263 kts 324°
2026-05-06 18:13 40.76611 -74.44940 11653 ft 264 kts 324°
2026-05-06 18:13 40.78273 -74.46041 11921 ft 274 kts 324°
2026-05-06 18:14 40.80018 -74.47196 12257 ft 279 kts 325°
2026-05-06 18:14 40.81739 -74.48331 12664 ft 281 kts 325°
2026-05-06 18:14 40.83481 -74.49478 13102 ft 280 kts 326°
2026-05-06 18:14 40.85244 -74.50640 13502 ft 281 kts 325°
2026-05-06 18:15 40.86993 -74.51797 13819 ft 285 kts 326°
2026-05-06 18:15 40.88777 -74.52977 14181 ft 286 kts 325°
2026-05-06 18:15 40.90541 -74.54141 14580 ft 285 kts 325°
2026-05-06 18:15 40.92308 -74.55310 14899 ft 287 kts 325°
2026-05-06 18:16 40.94094 -74.56496 15167 ft 290 kts 325°
2026-05-06 18:16 40.95889 -74.57684 15565 ft 289 kts 325°
2026-05-06 18:16 40.97686 -74.58876 15831 ft 291 kts 324°
2026-05-06 18:16 40.99497 -74.60076 16225 ft 288 kts 324°
2026-05-06 18:17 41.01268 -74.61249 16592 ft 287 kts 324°
2026-05-06 18:17 41.03058 -74.62439 16855 ft 288 kts 324°
2026-05-06 18:17 41.04856 -74.63636 17114 ft 290 kts 324°
2026-05-06 18:17 41.06671 -74.64844 17390 ft 292 kts 324°
2026-05-06 18:18 41.08460 -74.66033 17746 ft 290 kts 323°
2026-05-06 18:18 41.10275 -74.67245 17951 ft 294 kts 323°
2026-05-06 18:18 41.12111 -74.68471 18223 ft 295 kts 323°
2026-05-06 18:18 41.13752 -74.70011 18480 ft 277 kts 302°
2026-05-06 18:19 41.14775 -74.72067 18757 ft 270 kts 293°
2026-05-06 18:19 41.15726 -74.74236 19045 ft 270 kts 292°
2026-05-06 18:19 41.16651 -74.76363 19292 ft 270 kts 292°
2026-05-06 18:19 41.17597 -74.78540 19555 ft 271 kts 292°
2026-05-06 18:20 41.18536 -74.80702 19748 ft 273 kts 292°
2026-05-06 18:20 41.19489 -74.82897 20018 ft 271 kts 292°
2026-05-06 18:20 41.20417 -74.85029 20332 ft 267 kts 292°
2026-05-06 18:20 41.21338 -74.87151 20525 ft 268 kts 292°
2026-05-06 18:21 41.22276 -74.89314 20722 ft 268 kts 292°
2026-05-06 18:21 41.23211 -74.91472 20900 ft 269 kts 292°
2026-05-06 18:21 41.24134 -74.93603 21080 ft 269 kts 292°
2026-05-06 18:21 41.25075 -74.95778 21215 ft 270 kts 292°
2026-05-06 18:22 41.26007 -74.97929 21418 ft 269 kts 292°
2026-05-06 18:22 41.26932 -75.00072 21498 ft 272 kts 292°
2026-05-06 18:22 41.27865 -75.02230 21713 ft 270 kts 292°
2026-05-06 18:22 41.28799 -75.04392 21876 ft 270 kts 292°
2026-05-06 18:23 41.29734 -75.06557 22052 ft 268 kts 292°
2026-05-06 18:23 41.30665 -75.08717 22118 ft 271 kts 292°
2026-05-06 18:23 41.31596 -75.10878 22267 ft 270 kts 293°
2026-05-06 18:23 41.32534 -75.13055 22361 ft 271 kts 292°
2026-05-06 18:24 41.33464 -75.15218 22505 ft 270 kts 292°
2026-05-06 18:24 41.34400 -75.17394 22579 ft 271 kts 292°
2026-05-06 18:24 41.35337 -75.19573 22693 ft 271 kts 293°
2026-05-06 18:24 41.36267 -75.21738 22827 ft 270 kts 292°
2026-05-06 18:25 41.37192 -75.23895 22924 ft 271 kts 292°
2026-05-06 18:25 41.38130 -75.26083 23053 ft 270 kts 292°
2026-05-06 18:25 41.39052 -75.28231 23178 ft 269 kts 293°
2026-05-06 18:25 41.39972 -75.30382 23302 ft 268 kts 292°
2026-05-06 18:26 41.40895 -75.32539 23420 ft 267 kts 292°
2026-05-06 18:26 41.41809 -75.34673 23551 ft 266 kts 292°
2026-05-06 18:26 41.42723 -75.36812 23671 ft 265 kts 292°
2026-05-06 18:26 41.43628 -75.38936 23782 ft 265 kts 292°
2026-05-06 18:27 41.44539 -75.41074 23808 ft 268 kts 292°
2026-05-06 18:27 41.45470 -75.43260 23810 ft 272 kts 292°
2026-05-06 18:27 41.46402 -75.45451 23820 ft 275 kts 292°
2026-05-06 18:27 41.47345 -75.47671 23804 ft 277 kts 292°
2026-05-06 18:28 41.48139 -75.50008 23809 ft 276 kts 286°
2026-05-06 18:28 41.48825 -75.52399 23811 ft 278 kts 285°
2026-05-06 18:28 41.49506 -75.54791 23820 ft 279 kts 285°
2026-05-06 18:28 41.50199 -75.57220 23829 ft 281 kts 285°
2026-05-06 18:29 41.50898 -75.59665 23818 ft 282 kts 286°
2026-05-06 18:29 41.51594 -75.62099 23821 ft 283 kts 285°
2026-05-06 18:29 41.52292 -75.64542 23822 ft 284 kts 286°
2026-05-06 18:29 41.52993 -75.66994 23824 ft 285 kts 285°
2026-05-06 18:30 41.53697 -75.69456 23827 ft 286 kts 285°
2026-05-06 18:30 41.54414 -75.71963 23817 ft 287 kts 285°
2026-05-06 18:30 41.55124 -75.74451 23819 ft 288 kts 285°
2026-05-06 18:30 41.55832 -75.76928 23823 ft 288 kts 285°
2026-05-06 18:31 41.56547 -75.79437 23817 ft 289 kts 285°
2026-05-06 18:31 41.57257 -75.81928 23820 ft 289 kts 285°
2026-05-06 18:31 41.57971 -75.84435 23813 ft 289 kts 285°
2026-05-06 18:31 41.58684 -75.86941 23817 ft 289 kts 285°
2026-05-06 18:32 41.59394 -75.89444 23814 ft 289 kts 285°
2026-05-06 18:32 41.60102 -75.91937 23813 ft 289 kts 285°
2026-05-06 18:32 41.60815 -75.94450 23818 ft 289 kts 285°
2026-05-06 18:32 41.61519 -75.96935 23815 ft 289 kts 285°
2026-05-06 18:33 41.62229 -75.99444 23815 ft 289 kts 285°
2026-05-06 18:33 41.62935 -76.01940 23814 ft 289 kts 285°
2026-05-06 18:33 41.63643 -76.04449 23808 ft 289 kts 285°
2026-05-06 18:33 41.64351 -76.06953 23814 ft 289 kts 285°
2026-05-06 18:34 41.65065 -76.09490 23812 ft 289 kts 285°
2026-05-06 18:34 41.65771 -76.11996 23813 ft 289 kts 285°
2026-05-06 18:34 41.66476 -76.14503 23820 ft 289 kts 285°
2026-05-06 18:34 41.67180 -76.17008 23821 ft 290 kts 285°
2026-05-06 18:35 41.67891 -76.19540 23823 ft 291 kts 285°
2026-05-06 18:35 41.68599 -76.22064 23812 ft 291 kts 285°
2026-05-06 18:35 41.69305 -76.24585 23817 ft 290 kts 285°
2026-05-06 18:35 41.70012 -76.27112 23824 ft 291 kts 285°
2026-05-06 18:36 41.70720 -76.29642 23823 ft 291 kts 285°
2026-05-06 18:36 41.71435 -76.32204 23830 ft 291 kts 285°
2026-05-06 18:36 41.72137 -76.34717 23830 ft 291 kts 285°
2026-05-06 18:36 41.72845 -76.37254 23825 ft 292 kts 285°
2026-05-06 18:37 41.73558 -76.39816 23814 ft 292 kts 286°
2026-05-06 18:37 41.74264 -76.42353 23808 ft 292 kts 285°
2026-05-06 18:37 41.74963 -76.44867 23824 ft 291 kts 285°
2026-05-06 18:37 41.75670 -76.47409 23820 ft 291 kts 285°
2026-05-06 18:38 41.76373 -76.49946 23817 ft 291 kts 285°
2026-05-06 18:38 41.77180 -76.52427 23806 ft 298 kts 294°
2026-05-06 18:38 41.78489 -76.54649 23830 ft 304 kts 303°
2026-05-06 18:38 41.79874 -76.56756 23839 ft 304 kts 303°
2026-05-06 18:39 41.81268 -76.58872 23835 ft 304 kts 304°
2026-05-06 18:39 41.82672 -76.61009 23825 ft 304 kts 304°
2026-05-06 18:39 41.84060 -76.63131 23827 ft 304 kts 303°
2026-05-06 18:40 41.86834 -76.67387 23831 ft 305 kts 303°
2026-05-06 18:40 41.88240 -76.69553 23845 ft 306 kts 303°
2026-05-06 18:40 41.89627 -76.71690 23850 ft 306 kts 303°
2026-05-06 18:40 41.91034 -76.73863 23846 ft 307 kts 303°
2026-05-06 18:41 41.92415 -76.75997 23834 ft 307 kts 303°
2026-05-06 18:41 41.93824 -76.78177 23851 ft 307 kts 303°
2026-05-06 18:41 41.95219 -76.80338 23857 ft 308 kts 303°
2026-05-06 18:41 41.96614 -76.82501 23852 ft 308 kts 303°
2026-05-06 18:42 41.98023 -76.84687 23857 ft 308 kts 303°
2026-05-06 18:42 41.99410 -76.86839 23858 ft 308 kts 303°
2026-05-06 18:42 42.00817 -76.89027 23850 ft 308 kts 303°
2026-05-06 18:42 42.02207 -76.91190 23850 ft 308 kts 303°
2026-05-06 18:43 42.03611 -76.93375 23848 ft 308 kts 303°
2026-05-06 18:43 42.05003 -76.95544 23850 ft 308 kts 303°
2026-05-06 18:43 42.06406 -76.97731 23845 ft 309 kts 303°
2026-05-06 18:43 42.07797 -76.99902 23849 ft 309 kts 303°
2026-05-06 18:44 42.09205 -77.02115 23837 ft 308 kts 302°
2026-05-06 18:44 42.10462 -77.04424 23848 ft 305 kts 297°
2026-05-06 18:44 42.11635 -77.06763 23846 ft 305 kts 297°
2026-05-06 18:44 42.12816 -77.09127 23843 ft 305 kts 297°
2026-05-06 18:45 42.14007 -77.11508 23846 ft 305 kts 297°
2026-05-06 18:45 42.15187 -77.13868 23843 ft 305 kts 297°
2026-05-06 18:45 42.16373 -77.16240 23851 ft 305 kts 297°
2026-05-06 18:45 42.17554 -77.18600 23848 ft 305 kts 297°
2026-05-06 18:46 42.18745 -77.20980 23846 ft 305 kts 297°
2026-05-06 18:46 42.19914 -77.23317 23843 ft 305 kts 297°
2026-05-06 18:46 42.21107 -77.25704 23841 ft 305 kts 297°
2026-05-06 18:46 42.22280 -77.28051 23843 ft 305 kts 297°
2026-05-06 18:47 42.23472 -77.30439 23839 ft 305 kts 297°
2026-05-06 18:47 42.24649 -77.32798 23846 ft 305 kts 297°
2026-05-06 18:47 42.25834 -77.35175 23845 ft 305 kts 297°
2026-05-06 18:47 42.27018 -77.37551 23848 ft 305 kts 297°
2026-05-06 18:48 42.28189 -77.39904 23849 ft 305 kts 297°
2026-05-06 18:48 42.29378 -77.42293 23846 ft 305 kts 297°
2026-05-06 18:48 42.30564 -77.44676 23852 ft 305 kts 297°
2026-05-06 18:48 42.31728 -77.47020 23844 ft 305 kts 296°
2026-05-06 18:49 42.32917 -77.49417 23839 ft 305 kts 297°
2026-05-06 18:49 42.34094 -77.51787 23837 ft 305 kts 297°
2026-05-06 18:49 42.35276 -77.54175 23846 ft 305 kts 297°
2026-05-06 18:49 42.36448 -77.56541 23851 ft 305 kts 297°
2026-05-06 18:50 42.37631 -77.58932 23855 ft 305 kts 297°
2026-05-06 18:50 42.38805 -77.61306 23847 ft 305 kts 297°
2026-05-06 18:50 42.39982 -77.63689 23849 ft 305 kts 297°
2026-05-06 18:50 42.41156 -77.66066 23852 ft 305 kts 296°
2026-05-06 18:51 42.42319 -77.68427 23852 ft 305 kts 296°
2026-05-06 18:51 42.43493 -77.70808 23861 ft 306 kts 296°
2026-05-06 18:51 42.44671 -77.73199 23858 ft 306 kts 296°
2026-05-06 18:51 42.45861 -77.75619 23864 ft 306 kts 296°
2026-05-06 18:52 42.47034 -77.78004 23864 ft 306 kts 296°
2026-05-06 18:52 42.48220 -77.80417 23853 ft 307 kts 296°
2026-05-06 18:52 42.49397 -77.82815 23857 ft 307 kts 296°
2026-05-06 18:52 42.50564 -77.85193 23864 ft 306 kts 296°
2026-05-06 18:53 42.51736 -77.87584 23861 ft 307 kts 296°
2026-05-06 18:53 42.52916 -77.89993 23858 ft 307 kts 296°
2026-05-06 18:53 42.54104 -77.92420 23853 ft 307 kts 296°
2026-05-06 18:53 42.55269 -77.94802 23856 ft 307 kts 296°
2026-05-06 18:54 42.56453 -77.97224 23850 ft 308 kts 296°
2026-05-06 18:54 42.57639 -77.99653 23844 ft 308 kts 296°
2026-05-06 18:54 42.58814 -78.02062 23850 ft 308 kts 296°
2026-05-06 18:54 42.59989 -78.04474 23849 ft 308 kts 296°
2026-05-06 18:55 42.61162 -78.06883 23848 ft 308 kts 296°
2026-05-06 18:55 42.62342 -78.09309 23846 ft 308 kts 296°
2026-05-06 18:55 42.63522 -78.11737 23851 ft 308 kts 296°
2026-05-06 18:55 42.64701 -78.14164 23850 ft 309 kts 296°
2026-05-06 18:56 42.65880 -78.16593 23846 ft 309 kts 296°
2026-05-06 18:56 42.67051 -78.19006 23848 ft 309 kts 295°
2026-05-06 18:56 42.68231 -78.21442 23848 ft 309 kts 296°
2026-05-06 18:56 42.69419 -78.23895 23844 ft 309 kts 296°
2026-05-06 18:57 42.70582 -78.26300 23839 ft 308 kts 296°
2026-05-06 18:57 42.71761 -78.28737 23838 ft 309 kts 296°
2026-05-06 18:57 42.72945 -78.31190 23841 ft 309 kts 296°
2026-05-06 18:57 42.74119 -78.33621 23845 ft 308 kts 296°
2026-05-06 18:58 42.75283 -78.36035 23850 ft 308 kts 296°
2026-05-06 18:58 42.76451 -78.38460 23859 ft 308 kts 296°
2026-05-06 18:58 42.77632 -78.40910 23686 ft 305 kts 296°
2026-05-06 18:58 42.78760 -78.43257 23364 ft 297 kts 296°
2026-05-06 18:59 42.79887 -78.45606 22987 ft 292 kts 296°
2026-05-06 18:59 42.80982 -78.47891 22595 ft 289 kts 296°
2026-05-06 18:59 42.82064 -78.50150 22213 ft 286 kts 296°
2026-05-06 18:59 42.83151 -78.52422 21817 ft 283 kts 296°
2026-05-06 19:00 42.84208 -78.54630 21436 ft 281 kts 296°
2026-05-06 19:00 42.85271 -78.56854 21055 ft 283 kts 295°
2026-05-06 19:00 42.86351 -78.59119 20660 ft 287 kts 296°
2026-05-06 19:00 42.87433 -78.61385 20280 ft 289 kts 296°
2026-05-06 19:01 42.88541 -78.63705 19914 ft 291 kts 296°
2026-05-06 19:01 42.89637 -78.66001 19531 ft 294 kts 295°
2026-05-06 19:01 42.90748 -78.68333 19132 ft 296 kts 295°
2026-05-06 19:01 42.91884 -78.70714 18717 ft 297 kts 295°
2026-05-06 19:02 42.93008 -78.73055 18300 ft 299 kts 297°
2026-05-06 19:02 42.94426 -78.75144 17896 ft 308 kts 311°
2026-05-06 19:02 42.96095 -78.77010 17462 ft 310 kts 313°
2026-05-06 19:02 42.97760 -78.78847 17034 ft 310 kts 313°
2026-05-06 19:03 42.99445 -78.80705 16602 ft 310 kts 313°
2026-05-06 19:03 43.01107 -78.82545 16172 ft 307 kts 313°
2026-05-06 19:03 43.02735 -78.84352 15757 ft 302 kts 313°
2026-05-06 19:03 43.04352 -78.86151 15342 ft 298 kts 313°
2026-05-06 19:04 43.05956 -78.87942 14932 ft 294 kts 313°
2026-05-06 19:04 43.07524 -78.89696 14525 ft 290 kts 312°
2026-05-06 19:04 43.09053 -78.91408 14131 ft 287 kts 312°
2026-05-06 19:04 43.10592 -78.93134 13736 ft 285 kts 312°
2026-05-06 19:05 43.12123 -78.94855 13347 ft 282 kts 312°
2026-05-06 19:05 43.13611 -78.96528 12962 ft 280 kts 312°
2026-05-06 19:05 43.15101 -78.98206 12578 ft 277 kts 313°
2026-05-06 19:05 43.16581 -78.99872 12195 ft 274 kts 313°
2026-05-06 19:06 43.18051 -79.01528 11813 ft 271 kts 313°
2026-05-06 19:06 43.19477 -79.03136 11443 ft 266 kts 313°
2026-05-06 19:06 43.20954 -79.04690 11051 ft 268 kts 321°
2026-05-06 19:06 43.22665 -79.05718 10696 ft 274 kts 333°
2026-05-06 19:07 43.24461 -79.06596 10311 ft 273 kts 333°
2026-05-06 19:07 43.26241 -79.07461 9933 ft 273 kts 334°
2026-05-06 19:07 43.28038 -79.08337 9550 ft 272 kts 334°
2026-05-06 19:07 43.29796 -79.09199 9179 ft 270 kts 334°
2026-05-06 19:08 43.31573 -79.10074 8803 ft 269 kts 335°
2026-05-06 19:08 43.33322 -79.10938 8433 ft 267 kts 335°
2026-05-06 19:08 43.35048 -79.11793 8074 ft 265 kts 335°
2026-05-06 19:08 43.36745 -79.12634 7854 ft 258 kts 335°
2026-05-06 19:09 43.38418 -79.13466 7534 ft 256 kts 335°
2026-05-06 19:09 43.40093 -79.14301 7169 ft 255 kts 336°
2026-05-06 19:09 43.41769 -79.15138 6789 ft 255 kts 336°
2026-05-06 19:09 43.43404 -79.15955 6412 ft 249 kts 337°
2026-05-06 19:10 43.45011 -79.16760 6037 ft 244 kts 337°
2026-05-06 19:10 43.46584 -79.17548 5675 ft 238 kts 337°
2026-05-06 19:10 43.48126 -79.18320 5326 ft 233 kts 337°
2026-05-06 19:10 43.49511 -79.19342 4980 ft 223 kts 313°
2026-05-06 19:11 43.50227 -79.21149 4774 ft 209 kts 289°
2026-05-06 19:11 43.50667 -79.23022 4591 ft 205 kts 288°
2026-05-06 19:11 43.51094 -79.24890 4312 ft 206 kts 288°
2026-05-06 19:11 43.51520 -79.26790 4005 ft 208 kts 288°
2026-05-06 19:12 43.51941 -79.28680 3702 ft 209 kts 288°
2026-05-06 19:12 43.52367 -79.30601 3413 ft 211 kts 288°
2026-05-06 19:12 43.52788 -79.32512 3105 ft 205 kts 288°
2026-05-06 19:12 43.53190 -79.34356 2790 ft 197 kts 288°
2026-05-06 19:13 43.53576 -79.36122 2469 ft 191 kts 289°
2026-05-06 19:13 43.53907 -79.37895 2170 ft 193 kts 277°
2026-05-06 19:13 43.53478 -79.39604 2042 ft 197 kts 230°
2026-05-06 19:13 43.52367 -79.40725 2006 ft 201 kts 216°
2026-05-06 19:14 43.51168 -79.41740 1983 ft 201 kts 215°
2026-05-06 19:14 43.49978 -79.42735 1976 ft 201 kts 215°
2026-05-06 19:14 43.48787 -79.43742 1970 ft 200 kts 219°
2026-05-06 19:14 43.47984 -79.45184 1948 ft 185 kts 264°
2026-05-06 19:15 43.48195 -79.46804 1969 ft 171 kts 299°
2026-05-06 19:15 43.48747 -79.48242 1966 ft 170 kts 301°
2026-05-06 19:15 43.49319 -79.49657 1968 ft 169 kts 302°
2026-05-06 19:15 43.49907 -79.51071 1979 ft 169 kts 303°
2026-05-06 19:16 43.50502 -79.52476 1980 ft 172 kts 303°
2026-05-06 19:16 43.51114 -79.53906 1976 ft 175 kts 303°
2026-05-06 19:16 43.51735 -79.55342 1972 ft 178 kts 303°
2026-05-06 19:16 43.52399 -79.56815 1968 ft 180 kts 309°
2026-05-06 19:17 43.53421 -79.57652 1952 ft 176 kts 355°
2026-05-06 19:17 43.54597 -79.57185 1976 ft 179 kts 24°
2026-05-06 19:17 43.55712 -79.56369 1974 ft 182 kts 25°
2026-05-06 19:17 43.56840 -79.55519 1971 ft 186 kts 26°
2026-05-06 19:18 43.57956 -79.54623 1962 ft 184 kts 33°
2026-05-06 19:18 43.58737 -79.53334 1949 ft 170 kts 55°
2026-05-06 19:18 43.59311 -79.51983 1969 ft 157 kts 55°
2026-05-06 19:18 43.59851 -79.50705 1958 ft 148 kts 56°
2026-05-06 19:19 43.60350 -79.49519 1919 ft 143 kts 55°
2026-05-06 19:19 43.60870 -79.48299 1671 ft 151 kts 55°
2026-05-06 19:19 43.61341 -79.47002 1394 ft 149 kts 65°
2026-05-06 19:19 43.61629 -79.45700 1136 ft 137 kts 69°
2026-05-06 19:20 43.61869 -79.44476 928 ft 131 kts 70°
2026-05-06 19:20 43.62014 -79.43211 791 ft 132 kts 71°
2026-05-06 19:20 43.62301 -79.41984 618 ft 134 kts 63°
2026-05-06 19:20 43.62623 -79.40766 364 ft 136 kts 64°
2026-05-06 19:21 43.62917 -79.39612 237 ft 115 kts 63°
2026-05-06 19:21 43.63141 -79.38490 576 ft 127 kts 74°
2026-05-06 19:21 43.63155 -79.37149 971 ft 159 kts 103°
2026-05-06 19:21 43.62525 -79.35818 1458 ft 181 kts 131°
2026-05-06 19:22 43.61575 -79.34494 1729 ft 201 kts 135°
2026-05-06 19:22 43.60582 -79.33150 1862 ft 202 kts 135°
2026-05-06 19:22 43.59567 -79.31785 1925 ft 207 kts 135°
2026-05-06 19:22 43.58509 -79.30398 1950 ft 213 kts 139°
2026-05-06 19:23 43.57148 -79.29625 1945 ft 215 kts 182°
2026-05-06 19:23 43.55804 -79.30338 1965 ft 209 kts 224°
2026-05-06 19:23 43.54792 -79.31806 1971 ft 213 kts 233°
2026-05-06 19:23 43.53832 -79.33360 1963 ft 212 kts 233°
2026-05-06 19:24 43.52913 -79.34903 1960 ft 211 kts 235°
2026-05-06 19:24 43.51997 -79.36478 1959 ft 209 kts 236°
2026-05-06 19:24 43.51100 -79.38045 1958 ft 208 kts 236°
2026-05-06 19:24 43.50220 -79.39605 1956 ft 207 kts 236°
2026-05-06 19:25 43.49344 -79.41169 1961 ft 205 kts 236°
2026-05-06 19:25 43.48472 -79.42735 1965 ft 204 kts 236°
2026-05-06 19:25 43.47706 -79.44341 1944 ft 198 kts 254°
2026-05-06 19:25 43.47766 -79.46110 1978 ft 181 kts 297°
2026-05-06 19:26 43.48369 -79.47616 1974 ft 182 kts 302°
2026-05-06 19:26 43.49005 -79.49119 1972 ft 183 kts 303°
2026-05-06 19:26 43.49662 -79.50641 1970 ft 185 kts 303°
2026-05-06 19:26 43.50328 -79.52175 1966 ft 187 kts 303°
2026-05-06 19:27 43.50999 -79.53715 1965 ft 187 kts 303°
2026-05-06 19:27 43.51661 -79.55236 1958 ft 184 kts 303°
2026-05-06 19:27 43.52336 -79.56737 1956 ft 181 kts 308°
2026-05-06 19:27 43.53345 -79.57604 1940 ft 173 kts 354°
2026-05-06 19:28 43.54473 -79.57185 1957 ft 169 kts 23°
2026-05-06 19:28 43.55528 -79.56438 1957 ft 168 kts 24°
2026-05-06 19:28 43.56542 -79.55692 1955 ft 165 kts 25°
2026-05-06 19:28 43.57547 -79.54941 1952 ft 162 kts 26°
2026-05-06 19:29 43.58530 -79.54211 1951 ft 158 kts 25°
2026-05-06 19:29 43.59486 -79.53506 1949 ft 153 kts 25°
2026-05-06 19:29 43.60301 -79.52596 1933 ft 151 kts 57°
2026-05-06 19:29 43.60452 -79.51231 1969 ft 145 kts 89°
2026-05-06 19:30 43.60539 -79.49861 1913 ft 143 kts 73°
2026-05-06 19:30 43.60770 -79.48537 1669 ft 140 kts 71°
2026-05-06 19:30 43.60999 -79.47269 1443 ft 135 kts 68°
2026-05-06 19:30 43.61292 -79.46059 1195 ft 131 kts 68°
2026-05-06 19:31 43.61571 -79.44875 1028 ft 129 kts 65°
2026-05-06 19:31 43.61901 -79.43742 864 ft 129 kts 62°
2026-05-06 19:31 43.62491 -79.41358 449 ft 136 kts 67°
2026-05-06 19:32 43.62784 -79.40140 262 ft 132 kts 68°
2026-05-06 19:32 43.63041 -79.39123 237 ft 67 kts 75°
2026-05-06 19:32 43.63096 -79.38962 239 ft 0 kts 35°